QPF
0.01 0.01 0.03 0.03 0.04 0.03 0.03 0.03 0.02 0.03 0.02 0.02 0.02 0.02 0.02 0.02 0.01 0.01 0.01 0.01 0.02 0.02 0.02 0.02 0.02 0.02 0.02 0.03 0.02 0.01 0.01 0.01 0.01 0.01 0.01 0.01 0.01 0.01 0.01 0.01 0.01 0.01 0.01
0.00 0.01 0.02 0.03 0.03 0.03 0.02 0.02 0.02 0.02 0.02 0.02 0.02 0.02 0.02 0.02 0.01 0.01 0.01 0.01 0.02 0.03 0.02 0.02 0.01 0.01 0.01 0.02 0.02 0.01 0.01 0.01 0.01 0.01 0.00 0.01 0.01 0.01 0.01 0.01 0.00 0.01 0.01
0.00 0.01 0.02 0.03 0.03 0.03 0.03 0.02 0.02 0.01 0.02 0.02 0.02 0.01 0.02 0.02 0.03 0.03 0.02 0.01 0.01 0.01 0.02 0.02 0.01 0.01 0.01 0.01 0.01 0.01 0.01 0.02 0.01 0.00 0.00 0.00 0.01 0.01 0.01 0.01 0.01 0.01 0.01
0.00 0.01 0.03 0.04 0.03 0.03 0.03 0.03 0.02 0.01 0.01 0.01 0.01 0.01 0.02 0.02 0.02 0.03 0.03 0.02 0.01 0.01 0.01 0.01 0.01 0.01 0.01 0.00 0.00 0.00 0.01 0.01 0.01 0.01 0.00 0.00 0.00 0.01 0.01 0.01 0.01 0.01 0.01
0.00 0.01 0.03 0.04 0.04 0.03 0.03 0.03 0.02 0.02 0.01 0.01 0.01 0.01 0.01 0.02 0.02 0.03 0.02 0.02 0.01 0.01 0.01 0.01 0.01 0.01 0.01 0.01 0.00 0.00 0.00 0.00 0.01 0.01 0.00 0.00 0.00 0.01 0.01 0.01 0.01 0.01 0.01
0.00 0.01 0.03 0.05 0.04 0.03 0.03 0.04 0.04 0.03 0.02 0.01 0.01 0.01 0.01 0.01 0.02 0.02 0.02 0.02 0.01 0.01 0.01 0.01 0.01 0.01 0.01 0.01 0.01 0.00 0.00 0.00 0.00 0.00 0.01 0.00 0.00 0.01 0.01 0.01 0.01 0.01 0.01
0.01 0.02 0.03 0.05 0.03 0.02 0.02 0.03 0.04 0.05 0.04 0.03 0.02 0.01 0.02 0.01 0.02 0.02 0.02 0.01 0.01 0.01 0.01 0.01 0.01 0.01 0.01 0.01 0.01 0.01 0.00 0.00 0.00 0.00 0.00 0.00 0.00 0.01 0.01 0.01 0.01 0.01 0.01
0.01 0.02 0.03 0.04 0.03 0.02 0.02 0.02 0.03 0.04 0.04 0.04 0.03 0.02 0.03 0.02 0.01 0.02 0.02 0.02 0.01 0.01 0.01 0.01 0.01 0.01 0.01 0.01 0.01 0.01 0.01 0.00 0.00 0.00 0.00 0.00 0.01 0.02 0.02 0.01 0.01 0.01 0.02
0.01 0.02 0.02 0.03 0.02 0.02 0.02 0.01 0.01 0.02 0.03 0.03 0.03 0.03 0.03 0.02 0.02 0.02 0.02 0.02 0.02 0.02 0.01 0.01 0.01 0.01 0.01 0.01 0.01 0.01 0.01 0.00 0.00 0.00 0.00 0.00 0.01 0.02 0.02 0.01 0.01 0.01 0.01
0.01 0.01 0.02 0.02 0.01 0.01 0.01 0.01 0.02 0.02 0.02 0.02 0.02 0.02 0.02 0.01 0.01 0.01 0.01 0.02 0.02 0.02 0.02 0.01 0.01 0.01 0.01 0.02 0.02 0.02 0.02 0.01 0.00 0.00 0.00 0.00 0.01 0.02 0.03 0.03 0.02 0.02 0.02
0.02 0.02 0.02 0.01 0.01 0.00 0.00 0.01 0.01 0.01 0.01 0.02 0.02 0.02 0.01 0.01 0.01 0.01 0.01 0.01 0.01 0.01 0.01 0.01 0.00 0.00 0.00 0.01 0.02 0.05 0.05 0.03 0.01 0.00 0.00 0.01 0.01 0.02 0.03 0.03 0.03 0.03 0.03
0.02 0.03 0.04 0.03 0.01 0.01 0.01 0.01 0.00 0.01 0.01 0.01 0.02 0.02 0.02 0.02 0.02 0.01 0.01 0.01 0.01 0.01 0.01 0.01 0.01 0.00 0.00 0.00 0.00 0.01 0.04 0.05 0.03 0.01 0.00 0.00 0.01 0.01 0.02 0.03 0.03 0.03 0.03
0.03 0.05 0.06 0.05 0.03 0.02 0.02 0.01 0.01 0.00 0.00 0.01 0.02 0.03 0.02 0.01 0.01 0.01 0.01 0.01 0.02 0.01 0.00 0.00 0.01 0.00 0.00 0.00 0.00 0.00 0.00 0.01 0.02 0.02 0.01 0.01 0.01 0.01 0.02 0.02 0.02 0.03 0.03
0.04 0.06 0.08 0.06 0.05 0.04 0.03 0.03 0.02 0.01 0.00 0.01 0.01 0.03 0.04 0.03 0.02 0.01 0.01 0.01 0.02 0.02 0.01 0.00 0.00 0.00 0.00 0.00 0.00 0.00 0.00 0.00 0.00 0.01 0.01 0.01 0.01 0.02 0.03 0.02 0.02 0.03 0.04
0.04 0.05 0.09 0.08 0.06 0.05 0.04 0.03 0.03 0.02 0.01 0.01 0.01 0.02 0.03 0.04 0.04 0.04 0.02 0.01 0.01 0.02 0.02 0.01 0.00 0.00 0.00 0.00 0.00 0.00 0.00 0.00 0.00 0.00 0.01 0.01 0.01 0.01 0.02 0.03 0.04 0.04 0.06
0.04 0.03 0.06 0.09 0.07 0.05 0.05 0.04 0.04 0.03 0.02 0.03 0.02 0.02 0.02 0.03 0.03 0.03 0.03 0.02 0.01 0.01 0.02 0.02 0.01 0.01 0.00 0.00 0.00 0.00 0.00 0.00 0.00 0.00 0.00 0.00 0.01 0.01 0.02 0.03 0.03 0.04 0.04
0.05 0.04 0.03 0.05 0.04 0.05 0.06 0.05 0.05 0.05 0.05 0.04 0.04 0.03 0.03 0.02 0.01 0.02 0.03 0.03 0.02 0.01 0.01 0.02 0.02 0.01 0.01 0.00 0.00 0.00 0.00 0.00 0.00 0.00 0.00 0.00 0.00 0.01 0.01 0.03 0.03 0.03 0.03
0.05 0.04 0.04 0.04 0.03 0.03 0.05 0.05 0.05 0.05 0.06 0.06 0.07 0.07 0.06 0.04 0.02 0.01 0.01 0.02 0.02 0.02 0.01 0.01 0.01 0.00 0.00 0.00 0.00 0.00 0.00 0.00 0.00 0.00 0.00 0.00 0.01 0.00 0.00 0.01 0.03 0.05 0.05
0.06 0.05 0.04 0.04 0.03 0.03 0.03 0.04 0.04 0.05 0.08 0.09 0.08 0.07 0.07 0.08 0.06 0.02 0.01 0.01 0.01 0.02 0.02 0.01 0.01 0.01 0.00 0.00 0.00 0.00 0.00 0.00 0.00 0.00 0.00 0.00 0.01 0.01 0.01 0.01 0.01 0.02 0.05
0.04 0.05 0.04 0.04 0.02 0.02 0.02 0.02 0.03 0.03 0.04 0.07 0.10 0.09 0.07 0.07 0.08 0.06 0.04 0.02 0.01 0.02 0.02 0.02 0.02 0.02 0.01 0.01 0.00 0.00 0.00 0.00 0.00 0.00 0.00 0.00 0.00 0.01 0.01 0.00 0.00 0.01 0.02
0.04 0.04 0.04 0.05 0.03 0.02 0.02 0.01 0.01 0.03 0.03 0.02 0.03 0.05 0.07 0.09 0.07 0.04 0.04 0.04 0.04 0.03 0.02 0.02 0.02 0.02 0.02 0.01 0.01 0.01 0.00 0.00 0.00 0.00 0.00 0.00 0.00 0.01 0.01 0.01 0.01 0.01 0.01
0.02 0.03 0.03 0.04 0.05 0.04 0.03 0.02 0.01 0.02 0.04 0.05 0.03 0.02 0.04 0.09 0.11 0.08 0.05 0.03 0.03 0.04 0.04 0.02 0.01 0.01 0.01 0.01 0.01 0.01 0.01 0.00 0.00 0.00 0.00 0.00 0.00 0.01 0.02 0.02 0.02 0.02 0.02
0.01 0.02 0.02 0.03 0.03 0.04 0.05 0.04 0.03 0.02 0.03 0.05 0.06 0.04 0.03 0.05 0.11 0.12 0.09 0.07 0.04 0.03 0.02 0.02 0.02 0.01 0.01 0.01 0.01 0.01 0.01 0.01 0.00 0.00 0.00 0.00 0.01 0.01 0.01 0.02 0.03 0.03 0.03
0.01 0.01 0.01 0.01 0.02 0.02 0.03 0.04 0.03 0.03 0.02 0.02 0.05 0.08 0.09 0.07 0.07 0.13 0.14 0.11 0.08 0.05 0.03 0.02 0.02 0.02 0.02 0.01 0.01 0.01 0.01 0.01 0.01 0.01 0.00 0.00 0.01 0.02 0.02 0.02 0.02 0.03 0.04
0.01 0.01 0.01 0.01 0.01 0.02 0.02 0.02 0.03 0.03 0.03 0.02 0.02 0.04 0.08 0.10 0.10 0.11 0.12 0.13 0.13 0.11 0.07 0.04 0.03 0.02 0.02 0.02 0.01 0.01 0.01 0.01 0.01 0.01 0.01 0.00 0.00 0.01 0.01 0.02 0.03 0.04 0.04
0.02 0.02 0.02 0.02 0.02 0.02 0.01 0.01 0.02 0.02 0.03 0.03 0.02 0.02 0.03 0.04 0.06 0.08 0.10 0.10 0.10 0.11 0.11 0.09 0.07 0.05 0.04 0.03 0.02 0.01 0.01 0.01 0.01 0.01 0.02 0.01 0.01 0.01 0.01 0.02 0.03 0.04 0.05
MSLP
1024.36 1023.53 1022.53 1021.49 1020.53 1019.75 1019.17 1018.77 1018.48 1018.23 1017.97 1017.66 1017.31 1016.96 1016.66 1016.45 1016.36 1016.39 1016.49 1016.62 1016.73 1016.78 1016.77 1016.70 1016.62 1016.56 1016.53 1016.56 1016.63 1016.71 1016.79 1016.85 1016.88 1016.88 1016.87 1016.88 1016.92 1017.00 1017.09 1017.20 1017.29 1017.36 1017.40
1025.01 1024.14 1023.12 1022.09 1021.18 1020.44 1019.91 1019.54 1019.27 1019.03 1018.75 1018.42 1018.04 1017.66 1017.32 1017.08 1016.96 1016.93 1016.98 1017.05 1017.09 1017.09 1017.03 1016.92 1016.81 1016.71 1016.66 1016.67 1016.71 1016.78 1016.86 1016.92 1016.96 1016.98 1017.01 1017.06 1017.13 1017.23 1017.34 1017.45 1017.54 1017.61 1017.65
1025.52 1024.62 1023.59 1022.58 1021.70 1021.03 1020.55 1020.24 1020.02 1019.80 1019.55 1019.22 1018.84 1018.44 1018.09 1017.81 1017.62 1017.53 1017.50 1017.48 1017.44 1017.36 1017.23 1017.08 1016.93 1016.81 1016.74 1016.73 1016.76 1016.82 1016.90 1016.97 1017.03 1017.09 1017.15 1017.24 1017.34 1017.46 1017.58 1017.69 1017.79 1017.86 1017.91
1025.92 1024.98 1023.96 1022.98 1022.16 1021.55 1021.15 1020.90 1020.72 1020.55 1020.32 1020.01 1019.65 1019.25 1018.88 1018.56 1018.32 1018.15 1018.02 1017.90 1017.76 1017.60 1017.41 1017.21 1017.03 1016.89 1016.81 1016.79 1016.82 1016.87 1016.95 1017.03 1017.11 1017.19 1017.29 1017.40 1017.53 1017.66 1017.80 1017.91 1018.00 1018.08 1018.13
1026.23 1025.29 1024.30 1023.38 1022.63 1022.09 1021.75 1021.54 1021.40 1021.26 1021.05 1020.76 1020.41 1020.03 1019.65 1019.30 1019.01 1018.76 1018.54 1018.33 1018.10 1017.86 1017.60 1017.37 1017.16 1017.01 1016.92 1016.89 1016.91 1016.96 1017.03 1017.10 1017.18 1017.28 1017.39 1017.52 1017.67 1017.81 1017.95 1018.07 1018.17 1018.24 1018.31
1026.52 1025.61 1024.68 1023.85 1023.18 1022.71 1022.41 1022.22 1022.09 1021.95 1021.74 1021.46 1021.12 1020.75 1020.37 1020.01 1019.69 1019.38 1019.09 1018.79 1018.49 1018.18 1017.87 1017.60 1017.38 1017.21 1017.11 1017.07 1017.07 1017.09 1017.13 1017.18 1017.24 1017.33 1017.43 1017.56 1017.71 1017.86 1018.01 1018.13 1018.24 1018.33 1018.42
1026.81 1025.99 1025.17 1024.44 1023.86 1023.45 1023.17 1022.99 1022.83 1022.65 1022.42 1022.13 1021.79 1021.43 1021.06 1020.70 1020.36 1020.02 1019.68 1019.32 1018.96 1018.59 1018.25 1017.94 1017.70 1017.51 1017.39 1017.32 1017.27 1017.25 1017.24 1017.24 1017.26 1017.30 1017.39 1017.50 1017.64 1017.79 1017.94 1018.08 1018.21 1018.32 1018.44
1027.14 1026.44 1025.75 1025.16 1024.68 1024.33 1024.06 1023.84 1023.63 1023.39 1023.10 1022.78 1022.44 1022.08 1021.74 1021.40 1021.06 1020.71 1020.33 1019.94 1019.52 1019.12 1018.73 1018.39 1018.12 1017.90 1017.74 1017.61 1017.51 1017.42 1017.34 1017.26 1017.22 1017.21 1017.24 1017.33 1017.45 1017.60 1017.75 1017.91 1018.06 1018.22 1018.37
1027.47 1026.93 1026.41 1025.97 1025.60 1025.30 1025.04 1024.77 1024.48 1024.16 1023.81 1023.45 1023.09 1022.75 1022.43 1022.11 1021.79 1021.44 1021.05 1020.63 1020.17 1019.72 1019.30 1018.92 1018.60 1018.33 1018.12 1017.93 1017.75 1017.58 1017.41 1017.25 1017.13 1017.05 1017.03 1017.07 1017.17 1017.30 1017.47 1017.64 1017.83 1018.02 1018.23
1027.78 1027.41 1027.07 1026.79 1026.54 1026.29 1026.03 1025.72 1025.36 1024.96 1024.54 1024.14 1023.78 1023.45 1023.15 1022.86 1022.56 1022.21 1021.81 1021.35 1020.86 1020.37 1019.89 1019.47 1019.09 1018.77 1018.50 1018.24 1017.98 1017.73 1017.47 1017.23 1017.02 1016.87 1016.79 1016.79 1016.85 1016.97 1017.13 1017.32 1017.53 1017.76 1018.01
1028.03 1027.82 1027.66 1027.52 1027.38 1027.20 1026.94 1026.60 1026.18 1025.73 1025.27 1024.84 1024.47 1024.15 1023.88 1023.61 1023.32 1022.98 1022.56 1022.07 1021.54 1021.00 1020.47 1019.99 1019.56 1019.18 1018.84 1018.52 1018.19 1017.86 1017.53 1017.22 1016.94 1016.72 1016.58 1016.52 1016.54 1016.63 1016.78 1016.97 1017.19 1017.45 1017.74
1028.19 1028.12 1028.10 1028.10 1028.05 1027.92 1027.69 1027.33 1026.89 1026.41 1025.93 1025.50 1025.13 1024.84 1024.59 1024.34 1024.05 1023.70 1023.25 1022.73 1022.16 1021.56 1020.98 1020.45 1019.97 1019.54 1019.15 1018.77 1018.39 1018.00 1017.61 1017.24 1016.90 1016.63 1016.43 1016.32 1016.29 1016.33 1016.45 1016.62 1016.84 1017.10 1017.41
1028.26 1028.29 1028.37 1028.46 1028.50 1028.42 1028.21 1027.88 1027.44 1026.97 1026.50 1026.08 1025.74 1025.47 1025.24 1025.00 1024.71 1024.33 1023.86 1023.30 1022.68 1022.04 1021.42 1020.84 1020.31 1019.84 1019.41 1018.99 1018.58 1018.15 1017.73 1017.32 1016.93 1016.61 1016.36 1016.19 1016.10 1016.09 1016.15 1016.27 1016.46 1016.71 1017.01
1028.27 1028.34 1028.49 1028.64 1028.72 1028.68 1028.51 1028.21 1027.81 1027.37 1026.95 1026.57 1026.27 1026.02 1025.80 1025.55 1025.25 1024.85 1024.35 1023.76 1023.10 1022.43 1021.78 1021.16 1020.61 1020.11 1019.64 1019.20 1018.75 1018.31 1017.86 1017.42 1017.00 1016.64 1016.34 1016.11 1015.95 1015.87 1015.86 1015.92 1016.06 1016.27 1016.55
1028.25 1028.34 1028.49 1028.65 1028.75 1028.74 1028.61 1028.36 1028.02 1027.64 1027.28 1026.96 1026.69 1026.47 1026.25 1026.00 1025.68 1025.26 1024.74 1024.12 1023.45 1022.76 1022.09 1021.45 1020.87 1020.35 1019.85 1019.38 1018.91 1018.43 1017.96 1017.50 1017.06 1016.66 1016.31 1016.02 1015.80 1015.63 1015.55 1015.53 1015.60 1015.77 1016.02
1028.26 1028.33 1028.45 1028.59 1028.68 1028.68 1028.58 1028.38 1028.11 1027.81 1027.51 1027.25 1027.03 1026.82 1026.60 1026.34 1026.01 1025.57 1025.04 1024.42 1023.75 1023.06 1022.38 1021.74 1021.14 1020.57 1020.04 1019.52 1019.01 1018.50 1018.00 1017.51 1017.04 1016.60 1016.21 1015.86 1015.57 1015.33 1015.17 1015.08 1015.08 1015.19 1015.41
1028.34 1028.36 1028.43 1028.52 1028.58 1028.57 1028.50 1028.35 1028.15 1027.92 1027.70 1027.49 1027.29 1027.10 1026.88 1026.60 1026.25 1025.81 1025.28 1024.68 1024.03 1023.36 1022.69 1022.03 1021.40 1020.80 1020.21 1019.63 1019.05 1018.49 1017.93 1017.40 1016.89 1016.42 1015.98 1015.58 1015.23 1014.93 1014.70 1014.54 1014.49 1014.55 1014.73
1028.49 1028.45 1028.46 1028.49 1028.51 1028.49 1028.43 1028.33 1028.19 1028.03 1027.87 1027.69 1027.52 1027.32 1027.08 1026.80 1026.44 1026.00 1025.50 1024.93 1024.32 1023.67 1023.02 1022.35 1021.69 1021.02 1020.35 1019.68 1019.02 1018.37 1017.75 1017.16 1016.60 1016.09 1015.61 1015.17 1014.78 1014.43 1014.15 1013.94 1013.84 1013.86 1014.01
1028.67 1028.59 1028.54 1028.51 1028.49 1028.46 1028.42 1028.35 1028.26 1028.15 1028.03 1027.88 1027.70 1027.49 1027.24 1026.93 1026.57 1026.15 1025.68 1025.16 1024.60 1024.00 1023.36 1022.69 1021.98 1021.24 1020.48 1019.71 1018.94 1018.20 1017.49 1016.82 1016.21 1015.65 1015.14 1014.67 1014.24 1013.86 1013.54 1013.29 1013.16 1013.15 1013.28
1028.85 1028.74 1028.64 1028.56 1028.51 1028.46 1028.43 1028.39 1028.35 1028.27 1028.17 1028.02 1027.83 1027.60 1027.32 1027.01 1026.65 1026.26 1025.84 1025.38 1024.87 1024.32 1023.70 1023.02 1022.28 1021.46 1020.61 1019.73 1018.85 1018.00 1017.20 1016.47 1015.80 1015.19 1014.64 1014.14 1013.69 1013.28 1012.92 1012.65 1012.49 1012.45 1012.55
1028.97 1028.84 1028.71 1028.59 1028.51 1028.46 1028.44 1028.43 1028.41 1028.36 1028.26 1028.11 1027.90 1027.64 1027.34 1027.01 1026.66 1026.31 1025.94 1025.54 1025.10 1024.60 1024.01 1023.33 1022.55 1021.68 1020.74 1019.77 1018.80 1017.86 1016.97 1016.17 1015.44 1014.79 1014.21 1013.68 1013.19 1012.75 1012.36 1012.06 1011.86 1011.79 1011.86
1028.97 1028.83 1028.68 1028.55 1028.45 1028.40 1028.39 1028.40 1028.40 1028.36 1028.27 1028.10 1027.87 1027.58 1027.26 1026.93 1026.60 1026.28 1025.96 1025.63 1025.26 1024.81 1024.25 1023.58 1022.79 1021.88 1020.89 1019.85 1018.81 1017.81 1016.86 1016.01 1015.23 1014.54 1013.91 1013.34 1012.81 1012.33 1011.91 1011.56 1011.31 1011.19 1011.21
1028.83 1028.69 1028.53 1028.39 1028.29 1028.25 1028.25 1028.28 1028.29 1028.26 1028.16 1027.98 1027.73 1027.42 1027.09 1026.76 1026.45 1026.17 1025.90 1025.63 1025.31 1024.91 1024.40 1023.75 1022.96 1022.04 1021.03 1019.97 1018.91 1017.87 1016.90 1016.01 1015.21 1014.47 1013.80 1013.18 1012.60 1012.06 1011.58 1011.17 1010.86 1010.67 1010.63
1028.55 1028.42 1028.25 1028.10 1028.01 1027.98 1027.99 1028.03 1028.05 1028.03 1027.93 1027.74 1027.48 1027.17 1026.84 1026.52 1026.23 1025.98 1025.76 1025.53 1025.26 1024.90 1024.42 1023.80 1023.03 1022.14 1021.15 1020.10 1019.05 1018.03 1017.07 1016.17 1015.35 1014.58 1013.86 1013.18 1012.54 1011.93 1011.37 1010.88 1010.50 1010.23 1010.10
1028.18 1028.04 1027.88 1027.73 1027.64 1027.61 1027.64 1027.68 1027.72 1027.70 1027.60 1027.42 1027.16 1026.85 1026.53 1026.23 1025.96 1025.74 1025.54 1025.34 1025.09 1024.76 1024.30 1023.71 1022.98 1022.12 1021.18 1020.19 1019.20 1018.22 1017.29 1016.42 1015.59 1014.80 1014.05 1013.31 1012.59 1011.91 1011.27 1010.70 1010.22 1009.87 1009.65
1027.76 1027.62 1027.45 1027.30 1027.21 1027.19 1027.22 1027.27 1027.31 1027.30 1027.20 1027.03 1026.79 1026.50 1026.20 1025.92 1025.67 1025.46 1025.27 1025.08 1024.83 1024.49 1024.05 1023.47 1022.78 1021.98 1021.10 1020.19 1019.27 1018.37 1017.50 1016.66 1015.85 1015.06 1014.28 1013.49 1012.72 1011.96 1011.25 1010.60 1010.04 1009.59 1009.28
Thickness
5707 5709 5711 5711 5712 5712 5712 5712 5712 5713 5713 5714 5714 5714 5714 5714 5714 5714 5714 5714 5715 5715 5715 5715 5715 5715 5715 5715 5715 5715 5715 5714 5715 5715 5715 5715 5715 5715 5715 5715 5715 5715 5715
5707 5708 5709 5709 5709 5709 5709 5709 5709 5709 5710 5710 5711 5711 5711 5711 5711 5711 5711 5711 5712 5712 5712 5712 5712 5712 5712 5712 5711 5711 5711 5711 5711 5711 5711 5711 5711 5712 5711 5711 5712 5712 5712
5705 5705 5706 5706 5706 5706 5706 5706 5706 5706 5707 5707 5707 5708 5708 5708 5708 5708 5708 5708 5708 5708 5708 5708 5709 5708 5708 5708 5707 5707 5707 5707 5707 5707 5707 5707 5708 5708 5708 5708 5708 5708 5708
5702 5702 5703 5703 5703 5703 5702 5702 5702 5702 5703 5703 5703 5704 5704 5704 5704 5704 5704 5704 5704 5704 5704 5704 5704 5704 5704 5704 5704 5703 5703 5703 5703 5703 5703 5703 5704 5704 5704 5704 5704 5704 5704
5698 5698 5699 5699 5699 5699 5699 5698 5698 5698 5699 5699 5699 5699 5700 5700 5700 5700 5700 5700 5700 5700 5700 5700 5700 5700 5700 5700 5700 5700 5699 5699 5699 5699 5699 5699 5700 5700 5700 5700 5700 5700 5700
5693 5694 5695 5695 5695 5695 5694 5694 5694 5694 5694 5694 5695 5695 5695 5695 5696 5696 5696 5696 5696 5696 5696 5696 5696 5696 5696 5696 5696 5696 5696 5695 5695 5695 5695 5695 5696 5696 5696 5696 5696 5696 5696
5688 5689 5689 5690 5690 5690 5690 5690 5690 5690 5690 5690 5690 5690 5690 5690 5690 5691 5691 5691 5691 5692 5692 5692 5692 5692 5692 5692 5692 5692 5692 5691 5691 5691 5691 5691 5692 5692 5692 5692 5692 5692 5692
5683 5683 5684 5684 5684 5685 5685 5685 5685 5685 5685 5685 5684 5684 5684 5685 5685 5685 5686 5686 5686 5687 5687 5687 5687 5687 5687 5687 5687 5687 5687 5687 5687 5687 5687 5687 5688 5688 5688 5688 5688 5688 5688
5676 5677 5678 5678 5679 5679 5679 5679 5679 5679 5679 5679 5679 5679 5678 5678 5679 5679 5680 5680 5681 5681 5682 5682 5682 5682 5682 5682 5682 5682 5682 5682 5682 5682 5682 5683 5683 5684 5684 5684 5684 5684 5683
5669 5670 5672 5672 5672 5673 5673 5673 5673 5673 5673 5673 5672 5672 5672 5672 5672 5673 5673 5674 5675 5675 5676 5676 5676 5677 5677 5677 5677 5677 5677 5677 5677 5677 5678 5678 5679 5679 5679 5679 5679 5679 5679
5662 5663 5665 5666 5666 5666 5666 5666 5666 5666 5666 5666 5666 5666 5666 5666 5666 5666 5667 5668 5668 5669 5669 5670 5670 5670 5671 5671 5671 5671 5671 5671 5672 5672 5672 5673 5674 5674 5674 5674 5674 5674 5674
5654 5656 5658 5659 5660 5660 5660 5660 5660 5659 5660 5660 5659 5659 5659 5659 5659 5660 5660 5661 5661 5662 5663 5663 5663 5664 5664 5664 5665 5665 5665 5665 5666 5666 5667 5668 5668 5669 5669 5669 5669 5669 5669
5647 5648 5650 5652 5653 5653 5653 5653 5653 5653 5653 5653 5652 5652 5652 5652 5653 5653 5653 5654 5654 5655 5656 5656 5657 5657 5657 5658 5658 5658 5658 5659 5659 5660 5661 5661 5662 5663 5663 5663 5663 5663 5663
5640 5641 5643 5644 5646 5646 5646 5646 5646 5646 5646 5645 5645 5645 5646 5646 5646 5646 5646 5646 5647 5648 5649 5649 5650 5650 5651 5651 5651 5651 5651 5652 5652 5653 5654 5655 5656 5656 5657 5657 5657 5657 5657
5633 5634 5635 5637 5638 5639 5639 5639 5639 5639 5638 5638 5638 5638 5638 5639 5638 5639 5639 5639 5640 5640 5641 5642 5642 5643 5643 5643 5644 5644 5645 5645 5645 5646 5647 5647 5648 5649 5650 5650 5650 5650 5650
5626 5627 5629 5630 5631 5632 5632 5632 5631 5631 5631 5631 5631 5631 5631 5631 5631 5631 5632 5632 5632 5632 5633 5633 5634 5635 5635 5635 5636 5637 5637 5638 5638 5639 5639 5640 5640 5641 5642 5642 5642 5642 5642
5618 5620 5621 5623 5623 5624 5624 5624 5624 5624 5624 5624 5624 5624 5624 5624 5624 5623 5623 5623 5624 5624 5625 5625 5625 5626 5626 5627 5627 5628 5629 5630 5630 5631 5631 5632 5632 5632 5633 5633 5633 5633 5633
5611 5612 5613 5615 5615 5616 5616 5616 5616 5616 5616 5616 5616 5616 5616 5616 5616 5615 5615 5615 5615 5615 5616 5616 5616 5616 5617 5617 5618 5619 5620 5621 5622 5622 5622 5623 5623 5623 5623 5624 5624 5624 5624
5604 5604 5605 5607 5607 5607 5607 5608 5608 5608 5608 5608 5607 5607 5607 5607 5607 5607 5606 5606 5606 5606 5606 5607 5606 5606 5607 5607 5609 5610 5611 5612 5612 5613 5614 5613 5613 5613 5613 5613 5614 5614 5614
5596 5597 5597 5598 5598 5599 5599 5599 5599 5599 5599 5599 5598 5598 5599 5598 5598 5598 5598 5597 5597 5597 5596 5596 5596 5596 5596 5597 5599 5600 5601 5602 5603 5603 5603 5604 5603 5603 5603 5603 5603 5603 5604
5587 5588 5588 5589 5589 5590 5590 5590 5589 5589 5589 5589 5589 5589 5589 5589 5589 5589 5588 5588 5587 5587 5586 5586 5586 5586 5585 5586 5587 5589 5591 5592 5592 5593 5593 5593 5593 5593 5593 5592 5592 5592 5593
5579 5579 5580 5580 5581 5582 5582 5582 5581 5580 5580 5579 5579 5579 5580 5580 5580 5579 5579 5578 5577 5577 5576 5576 5576 5575 5574 5574 5574 5574 5576 5580 5581 5582 5582 5582 5582 5582 5582 5582 5582 5582 5582
5570 5571 5572 5572 5572 5572 5572 5572 5571 5571 5569 5569 5569 5570 5570 5570 5570 5570 5569 5568 5568 5567 5566 5566 5565 5565 5563 5563 5562 5561 5562 5564 5565 5569 5569 5570 5569 5570 5570 5570 5571 5572 5572
5562 5562 5563 5563 5563 5563 5563 5563 5563 5562 5560 5559 5559 5559 5559 5560 5560 5559 5559 5558 5557 5557 5556 5556 5555 5554 5553 5551 5550 5550 5549 5549 5549 5553 5556 5557 5557 5557 5558 5559 5560 5561 5562
5553 5553 5553 5553 5553 5553 5553 5553 5553 5551 5550 5549 5548 5548 5548 5548 5548 5548 5548 5547 5547 5546 5545 5545 5544 5543 5542 5541 5539 5538 5537 5537 5537 5537 5540 5543 5544 5545 5546 5547 5548 5549 5550
5542 5542 5542 5542 5542 5543 5543 5543 5542 5541 5539 5538 5537 5537 5536 5536 5537 5537 5536 5536 5536 5536 5534 5534 5533 5532 5530 5529 5528 5527 5526 5525 5525 5524 5525 5527 5529 5532 5534 5535 5536 5537 5538